FW2998 Weather Reports


time (UTC)temp
F
wind
direction
speed
knots
gust
knots
rain 1hr
in
rain 24hr
in
rain mn
in
humidity
%
barometer
mb
20260507065019 67 0 0.0 0.0 0.00 0.10 0.02 94 1011.9
20260507064536 67 0 0.0 0.0 0.00 0.10 0.02 94 1011.9
20260507064022 67 0 0.0 0.9 0.01 0.10 0.02 94 1011.9
20260507063522 67 0 0.0 0.9 0.01 0.10 0.02 94 1012.2
20260507063051 67 0 0.0 0.0 0.01 0.10 0.02 94 1011.9
20260507062520 67 0 0.0 0.0 0.01 0.10 0.02 94 1011.9
20260507062020 67 0 0.0 0.0 0.01 0.10 0.02 94 1011.9
20260507061535 67 0 0.0 0.0 0.01 0.10 0.02 94 1011.9
20260507061018 67 0 0.0 0.9 0.01 0.10 0.02 93 1011.9
20260507060520 67 0 0.0 0.9 0.01 0.10 0.02 93 1012.0
20260507060043 67 0 0.0 0.0 0.01 0.10 0.02 93 1012.1
20260507055520 67 0 0.0 0.0 0.01 0.10 0.02 93 1012.1
20260507055019 67 0 0.0 0.0 0.01 0.10 0.02 93 1012.2
20260507054541 68 0 0.0 0.0 0.01 0.10 0.02 93 1012.0
20260507054019 68 0 0.0 0.0 0.00 0.09 0.01 93 1011.9
20260507053520 68 0 0.0 0.0 0.00 0.09 0.01 93 1012.0
20260507053035 68 0 0.0 0.0 0.00 0.09 0.01 93 1012.2
20260507052521 68 0 0.0 0.0 0.00 0.09 0.01 93 1012.1
20260507052021 68 0 0.0 0.0 0.01 0.09 0.01 93 1012.2
20260507051536 68 0 0.0 0.0 0.01 0.09 0.01 93 1012.3
20260507051020 68 0 0.0 0.0 0.01 0.09 0.01 93 1012.7
20260507050520 68 0 0.0 0.0 0.01 0.09 0.01 93 1012.6
20260507050036 68 0 0.0 0.0 0.01 0.09 0.01 92 1012.6
20260507045520 68 0 0.0 0.0 0.01 0.09 0.01 93 1013.0
20260507045020 68 0 0.0 0.0 0.02 0.09 0.01 92 1013.2
20260507044542 68 0 0.0 0.0 0.02 0.09 0.01 92 1013.5
20260507044020 68 0 0.0 0.0 0.02 0.09 0.01 92 1013.7
20260507043518 68 0 0.0 0.0 0.02 0.09 0.01 92 1014.1
20260507043038 69 0 0.0 0.0 0.02 0.09 0.01 91 1014.2
20260507042518 69 0 0.0 0.0 0.03 0.09 0.01 91 1014.2
20260507042019 69 0 0.0 0.0 0.02 0.08 0.00 91 1014.5
20260507041537 69 0 0.0 0.0 0.03 0.08 0.00 91 1014.5
20260507041021 69 0 0.0 0.0 0.03 0.08 0.00 90 1015.1
20260507040519 69 0 0.0 1.7 0.04 0.08 0.00 90 1014.8
20260507040035 69 0 0.0 1.7 0.05 0.08 0.00 90 1014.7
20260507035519 69 188 0.0 1.7 0.06 0.08 0.08 89 1014.9
20260507035023 70 0 0.0 2.6 0.06 0.07 0.07 88 1015.4
20260507034537 70 0 0.0 3.5 0.07 0.07 0.07 87 1015.8
20260507034020 70 321 0.9 3.5 0.07 0.07 0.07 87 1015.9
20260507033526 71 298 0.0 3.5 0.07 0.07 0.07 86 1016.0
20260507033039 71 0 0.0 4.3 0.07 0.07 0.07 85 1015.8
20260507032520 72 0 0.0 4.3 0.06 0.06 0.06 84 1015.9
20260507032022 73 0 0.0 4.3 0.05 0.05 0.05 83 1015.9
20260507031537 73 260 0.0 5.2 0.05 0.05 0.05 82 1015.9
20260507031020 74 0 0.0 6.1 0.05 0.05 0.05 81 1016.0
20260507030520 75 0 0.9 6.1 0.04 0.04 0.04 80 1015.8
20260507030036 77 192 0.0 3.5 0.03 0.03 0.03 79 1015.7
20260507025520 77 0 0.0 1.7 0.02 0.02 0.02 77 1015.9
20260507025020 78 0 0.0 1.7 0.01 0.01 0.01 76 1014.7
20260507024537 78 0 0.0 1.7 0.00 0.00 0.00 72 1013.8
20260507024022 78 0 0.0 1.7 0.00 0.00 0.00 70 1013.1
20260507023520 78 0 0.0 0.0 0.00 0.00 0.00 68 1012.8
20260507023035 78 0 0.0 0.9 0.00 0.00 0.00 68 1012.5
20260507022520 78 0 0.0 0.9 0.00 0.00 0.00 68 1012.5
20260507022023 78 0 0.0 0.9 0.00 0.00 0.00 67 1012.5
20260507021537 78 0 0.0 0.9 0.00 0.00 0.00 67 1012.7
20260507021020 78 111 0.0 0.9 0.00 0.00 0.00 67 1012.5
20260507020523 78 0 0.0 3.5 0.00 0.00 0.00 66 1012.4
20260507020042 78 0 0.0 3.5 0.00 0.00 0.00 66 1012.3
20260507015521 78 111 0.0 2.6 0.00 0.00 0.00 65 1012.2
20260507015021 78 0 0.0 1.7 0.00 0.00 0.00 65 1012.2
20260507014543 78 0 0.0 1.7 0.00 0.00 0.00 65 1012.0
20260507014021 78 0 0.0 0.0 0.00 0.00 0.00 65 1012.1
20260507013521 78 0 0.0 0.0 0.00 0.00 0.00 64 1012.0
20260507013047 78 0 0.0 0.0 0.00 0.00 0.00 63 1012.0
20260507012520 78 0 0.0 0.0 0.00 0.00 0.00 62 1012.0
20260507012019 78 0 0.0 0.0 0.00 0.00 0.00 62 1011.9
20260507011536 78 0 0.0 0.0 0.00 0.00 0.00 61 1012.0
20260507011019 78 0 0.0 0.0 0.00 0.00 0.00 61 1012.1
20260507010520 79 0 0.0 0.0 0.00 0.00 0.00 60 1012.0
20260507010046 79 0 0.0 0.0 0.00 0.00 0.00 60 1012.1
20260507005520 79 0 0.0 0.0 0.00 0.00 0.00 59 1012.0
20260507005019 79 0 0.0 0.0 0.00 0.00 0.00 59 1012.1
20260507004535 80 0 0.0 0.0 0.00 0.00 0.00 58 1012.2
20260507004022 80 0 0.0 0.0 0.00 0.00 0.00 57 1012.1
20260507003520 80 0 0.0 0.0 0.00 0.00 0.00 57 1012.2
20260507003039 81 0 0.0 0.0 0.00 0.00 0.00 56 1012.2
20260507002519 81 0 0.0 0.0 0.00 0.00 0.00 56 1012.2
20260507002020 82 0 0.0 0.0 0.00 0.00 0.00 55 1012.1
20260507001535 82 0 0.0 0.0 0.00 0.00 0.00 54 1012.1
20260507001019 82 0 0.0 0.0 0.00 0.00 0.00 54 1012.0
20260507000520 83 0 0.0 0.0 0.00 0.00 0.00 53 1012.0
20260507000036 83 0 0.0 0.0 0.00 0.00 0.00 53 1012.1
20260506235521 84 0 0.0 0.0 0.00 0.00 0.00 52 1012.0
20260506235019 84 0 0.0 0.0 0.00 0.00 0.00 52 1012.0
20260506234538 84 0 0.0 0.9 0.00 0.00 0.00 51 1012.1
20260506234021 85 0 0.0 0.9 0.00 0.00 0.00 51 1012.1
20260506233523 85 0 0.0 0.0 0.00 0.00 0.00 51 1012.1
20260506233054 85 0 0.0 1.7 0.00 0.00 0.00 51 1012.1
20260506232521 85 0 0.0 1.7 0.00 0.00 0.00 50 1012.1
20260506232018 86 0 0.0 0.9 0.00 0.00 0.00 49 1012.1
20260506231541 86 0 0.0 1.7 0.00 0.00 0.00 49 1012.1
20260506231022 86 0 0.0 1.7 0.00 0.00 0.00 49 1012.2
20260506230520 86 0 0.0 0.0 0.00 0.00 0.00 49 1012.2
20260506230037 86 0 0.0 2.6 0.00 0.00 0.00 49 1012.3
20260506225521 87 0 0.0 2.6 0.00 0.00 0.00 48 1012.3
20260506225020 87 0 0.0 5.2 0.00 0.00 0.00 47 1012.3
20260506224536 87 0 0.0 5.2 0.00 0.00 0.00 47 1012.3
20260506224021 87 0 0.0 1.7 0.00 0.00 0.00 47 1012.2
20260506223519 88 0 0.0 3.5 0.00 0.00 0.00 46 1012.5
20260506223036 88 0 0.0 3.5 0.00 0.00 0.00 47 1012.4
20260506222521 88 244 0.0 3.5 0.00 0.00 0.00 47 1012.4
20260506222023 88 0 0.0 6.1 0.00 0.00 0.00 48 1012.5
20260506221540 88 0 0.0 6.1 0.00 0.00 0.00 46 1012.3
20260506221019 89 0 0.9 6.1 0.00 0.00 0.00 46 1012.3
20260506220520 89 200 0.0 3.5 0.00 0.00 0.00 47 1012.4
20260506220034 89 0 0.0 2.6 0.00 0.00 0.00 48 1012.5
20260506215520 89 0 0.0 2.6 0.00 0.00 0.00 49 1012.5
20260506215020 89 0 0.0 2.6 0.00 0.00 0.00 48 1012.6
20260506214538 89 0 0.0 1.7 0.00 0.00 0.00 49 1012.7
20260506214020 89 0 0.0 1.7 0.00 0.00 0.00 49 1012.7
20260506213519 89 0 0.0 3.5 0.00 0.00 0.00 51 1012.5
20260506213037 89 96 0.0 3.5 0.00 0.00 0.00 49 1012.5
20260506212521 88 36 0.9 3.5 0.00 0.00 0.00 51 1012.5
20260506212020 88 0 0.0 2.6 0.00 0.00 0.00 50 1012.3
20260506211536 88 0 0.0 2.6 0.00 0.00 0.00 50 1012.6
20260506211021 88 0 0.0 1.7 0.00 0.00 0.00 51 1012.6
20260506210526 88 0 0.0 2.6 0.00 0.00 0.00 51 1012.6
20260506210037 88 0 0.0 8.7 0.00 0.00 0.00 50 1012.5
20260506205519 88 0 0.9 8.7 0.00 0.00 0.00 50 1012.5
20260506205024 88 310 0.0 5.2 0.00 0.00 0.00 52 1012.6
20260506204536 88 0 0.9 5.2 0.00 0.00 0.00 51 1012.6
20260506204022 88 22 0.0 3.5 0.00 0.00 0.00 52 1012.8
20260506203520 87 0 0.0 3.5 0.00 0.00 0.00 54 1012.8
20260506203039 87 0 0.0 3.5 0.00 0.00 0.00 54 1012.8
20260506202520 87 137 0.0 4.3 0.00 0.00 0.00 54 1012.8
20260506202020 86 0 0.0 5.2 0.00 0.00 0.00 54 1013.0
20260506201537 86 0 0.9 5.2 0.00 0.00 0.00 54 1013.3
20260506201022 86 0 0.0 2.6 0.00 0.00 0.00 55 1013.5
20260506200522 86 0 0.0 4.3 0.00 0.00 0.00 56 1013.6
20260506200041 85 0 0.9 4.3 0.00 0.00 0.00 57 1013.7
20260506195520 85 248 0.0 4.3 0.00 0.00 0.00 56 1013.7
20260506195019 84 0 0.9 3.5 0.00 0.00 0.00 56 1013.8
20260506194544 84 253 0.0 5.2 0.00 0.00 0.00 57 1013.7
20260506194018 83 0 0.0 5.2 0.00 0.00 0.00 58 1013.9
20260506193518 83 126 0.0 6.1 0.00 0.00 0.00 57 1014.0
20260506193038 83 142 0.0 6.1 0.00 0.00 0.00 58 1013.9
20260506192521 83 96 0.0 5.2 0.00 0.00 0.00 59 1013.9
20260506192020 82 0 0.0 5.2 0.00 0.00 0.00 59 1014.1
20260506191539 82 0 0.0 3.5 0.00 0.00 0.00 58 1014.1
20260506191021 82 0 0.0 3.5 0.00 0.00 0.00 60 1014.1
20260506190522 82 0 0.0 2.6 0.00 0.00 0.00 59 1014.1
20260506190038 82 0 0.0 2.6 0.00 0.00 0.00 60 1014.2
20260506185520 81 0 0.0 3.5 0.00 0.00 0.00 61 1014.4
20260506185022 81 294 0.0 7.8 0.00 0.00 0.00 62 1014.7
20260506184536 80 0 0.9 7.8 0.00 0.00 0.00 63 1014.7
20260506184021 80 233 0.0 5.2 0.00 0.00 0.00 64 1014.7
20260506183520 79 146 0.0 3.5 0.00 0.00 0.00 64 1014.6
20260506183037 79 338 0.0 7.8 0.00 0.00 0.00 64 1014.8
20260506182519 79 0 0.0 7.8 0.00 0.00 0.00 64 1015.0
20260506182021 79 312 0.0 3.5 0.00 0.00 0.00 64 1015.0
20260506181539 79 273 0.0 6.1 0.00 0.00 0.00 64 1015.2
20260506181023 79 0 0.0 6.1 0.00 0.00 0.00 65 1015.1
20260506180520 79 306 0.0 3.5 0.00 0.00 0.00 63 1015.1
20260506180043 79 0 0.0 3.5 0.00 0.00 0.00 64 1015.3
20260506175520 79 0 0.0 3.5 0.00 0.00 0.00 64 1015.6
20260506175021 79 0 0.0 3.5 0.00 0.00 0.00 64 1015.4
20260506174538 79 52 0.0 3.5 0.00 0.00 0.00 66 1015.4
20260506174021 78 0 0.0 4.3 0.00 0.00 0.00 67 1015.6
20260506173521 78 0 0.0 4.3 0.00 0.00 0.00 66 1015.7
20260506173043 77 203 0.0 4.3 0.00 0.00 0.00 66 1015.9
20260506172520 77 0 0.0 2.6 0.00 0.00 0.00 66 1015.9
20260506172021 78 0 0.0 3.5 0.00 0.00 0.00 66 1016.2
20260506171540 78 0 0.0 3.5 0.00 0.00 0.00 65 1016.3
20260506171026 78 259 0.0 3.5 0.00 0.00 0.00 65 1016.2
20260506170521 78 0 0.0 3.5 0.00 0.00 0.00 64 1016.4
20260506170035 78 225 0.0 3.5 0.00 0.00 0.00 64 1016.3
20260506165521 78 0 0.0 3.5 0.00 0.00 0.00 66 1016.2
20260506165023 78 0 0.0 3.5 0.00 0.00 0.00 66 1016.4
20260506164545 78 298 0.0 0.9 0.00 0.00 0.00 66 1016.4
20260506164022 78 0 0.0 2.6 0.00 0.00 0.00 67 1016.5
20260506163521 78 0 0.0 2.6 0.00 0.00 0.00 66 1016.6
20260506163035 78 0 0.0 2.6 0.00 0.00 0.00 66 1016.8
20260506162520 78 0 0.0 4.3 0.00 0.00 0.00 67 1016.8
20260506162018 78 109 0.0 4.3 0.00 0.00 0.00 67 1016.5
20260506161534 77 0 0.0 3.5 0.00 0.00 0.00 69 1016.6
20260506161022 77 0 0.0 6.1 0.00 0.00 0.00 70 1016.6
20260506160522 76 0 0.0 6.1 0.00 0.00 0.00 71 1016.5
20260506160041 76 0 0.0 3.5 0.00 0.00 0.00 71 1016.5
20260506155522 75 0 0.0 1.7 0.00 0.00 0.00 73 1016.5
20260506155018 75 0 0.0 2.6 0.00 0.00 0.00 73 1016.4
20260506154547 74 0 0.0 2.6 0.00 0.00 0.00 74 1016.3
20260506154018 74 0 0.0 1.7 0.00 0.00 0.00 72 1016.3
20260506153520 74 0 0.0 0.9 0.00 0.00 0.00 72 1016.4
20260506153036 74 0 0.0 0.9 0.00 0.00 0.00 73 1016.3
20260506152522 74 0 0.0 0.9 0.00 0.00 0.00 73 1016.2
20260506152019 74 0 0.0 1.7 0.00 0.00 0.00 73 1016.3
20260506151536 74 0 0.0 3.5 0.00 0.00 0.00 72 1016.3
20260506151018 73 0 0.0 3.5 0.00 0.00 0.00 74 1016.3
20260506150521 73 53 0.0 1.7 0.00 0.00 0.00 74 1016.2
20260506150038 72 0 0.0 1.7 0.00 0.00 0.00 74 1016.1
20260506145523 72 0 0.0 0.0 0.00 0.00 0.00 75 1016.1
20260506145019 72 0 0.0 5.2 0.00 0.00 0.00 75 1016.1
20260506144538 71 0 0.0 5.2 0.00 0.00 0.00 75 1016.1
20260506144021 71 0 0.0 4.3 0.00 0.00 0.00 75 1016.2
20260506143520 71 180 0.0 4.3 0.00 0.00 0.00 75 1016.1
20260506143037 71 225 0.0 3.5 0.00 0.00 0.00 75 1016.2
20260506142518 71 0 0.0 3.5 0.00 0.00 0.00 76 1016.2
20260506142017 70 0 0.0 2.6 0.00 0.00 0.00 76 1016.2
20260506141542 70 0 0.0 0.9 0.00 0.00 0.00 77 1016.2
20260506141020 70 0 0.0 0.9 0.00 0.00 0.00 78 1016.3
20260506140519 69 0 0.0 0.9 0.00 0.00 0.00 78 1016.2
20260506140035 69 0 0.0 1.7 0.00 0.00 0.00 79 1016.3
20260506135517 68 0 0.0 5.2 0.00 0.00 0.00 79 1016.2
20260506135019 68 0 0.0 5.2 0.00 0.00 0.00 79 1016.4
20260506134535 68 0 0.0 5.2 0.00 0.00 0.00 80 1016.4
20260506134020 67 0 0.0 0.0 0.00 0.00 0.00 80 1016.3
20260506133520 67 0 0.0 0.0 0.00 0.00 0.00 81 1016.0
20260506133037 66 0 0.0 0.0 0.00 0.00 0.00 81 1016.0
20260506132519 66 0 0.0 2.6 0.00 0.00 0.00 82 1016.3
20260506132020 66 0 0.0 2.6 0.00 0.00 0.00 82 1016.2
20260506131538 65 323 0.0 1.7 0.00 0.00 0.00 82 1016.2
20260506131021 65 0 0.0 1.7 0.00 0.00 0.00 83 1016.3
20260506130523 65 0 0.0 1.7 0.00 0.00 0.00 83 1016.3
20260506130035 64 0 0.0 1.7 0.00 0.00 0.00 84 1016.4
20260506125519 64 0 0.0 1.7 0.00 0.00 0.00 84 1016.3
20260506125022 64 0 0.0 2.6 0.00 0.00 0.00 85 1016.4
20260506124538 63 0 0.0 2.6 0.00 0.00 0.00 86 1016.4
20260506124020 63 0 0.0 0.9 0.00 0.00 0.00 86 1016.2
20260506123520 63 0 0.0 0.9 0.00 0.00 0.00 87 1016.1
20260506123040 62 275 0.0 0.9 0.00 0.00 0.00 88 1016.0
20260506122519 62 0 0.0 0.9 0.00 0.00 0.00 89 1016.0
20260506122019 62 0 0.0 0.0 0.00 0.00 0.00 89 1016.1
20260506121534 62 0 0.0 0.0 0.00 0.00 0.00 89 1016.0
20260506121020 61 0 0.0 0.0 0.00 0.00 0.00 89 1015.9
20260506120521 61 0 0.0 0.0 0.00 0.00 0.00 89 1015.8
20260506120104 61 0 0.0 0.0 0.00 0.00 0.00 90 1015.8
20260506115521 61 0 0.0 0.0 0.00 0.00 0.00 90 1015.9
20260506115019 61 0 0.0 0.0 0.00 0.00 0.00 90 1016.1
20260506114536 61 0 0.0 0.0 0.00 0.00 0.00 90 1015.8
20260506114020 60 0 0.0 0.0 0.00 0.00 0.00 90 1015.6
20260506113521 60 0 0.0 0.0 0.00 0.00 0.00 90 1015.4
20260506113036 60 0 0.0 0.0 0.00 0.00 0.00 90 1015.2
20260506112520 60 0 0.0 0.0 0.00 0.00 0.00 90 1015.1
20260506112020 60 0 0.0 0.0 0.00 0.00 0.00 89 1015.1
20260506111534 60 0 0.0 0.0 0.00 0.00 0.00 89 1015.2
20260506111019 60 0 0.0 0.0 0.00 0.00 0.00 89 1015.2
20260506110519 60 0 0.0 0.0 0.00 0.00 0.00 88 1015.2
20260506110032 60 0 0.0 0.0 0.00 0.00 0.00 88 1015.2
20260506105519 60 0 0.0 0.0 0.00 0.00 0.00 88 1015.3
20260506105020 60 0 0.0 0.0 0.00 0.00 0.00 88 1015.2
20260506104540 60 0 0.0 0.9 0.00 0.00 0.00 88 1015.1
20260506104022 60 0 0.0 0.9 0.00 0.00 0.00 88 1015.2
20260506103519 60 0 0.0 0.9 0.00 0.00 0.00 88 1015.1
20260506103036 60 0 0.0 0.0 0.00 0.00 0.00 87 1015.1
20260506102519 60 0 0.0 0.0 0.00 0.00 0.00 87 1015.1
20260506102019 60 0 0.0 0.0 0.00 0.00 0.00 87 1015.1
20260506101536 60 0 0.0 0.0 0.00 0.00 0.00 87 1015.0
20260506101020 60 0 0.0 0.0 0.00 0.00 0.00 87 1015.0
20260506100519 60 0 0.0 0.0 0.00 0.00 0.00 87 1014.9
20260506100035 60 0 0.0 0.0 0.00 0.00 0.00 87 1014.9
20260506095520 60 0 0.0 0.0 0.00 0.00 0.00 86 1014.9
20260506095021 60 0 0.0 0.0 0.00 0.00 0.00 86 1015.0
20260506094536 60 0 0.0 0.0 0.00 0.00 0.00 86 1015.2
20260506094018 60 0 0.0 0.0 0.00 0.00 0.00 86 1015.4
20260506093519 60 0 0.0 0.0 0.00 0.00 0.00 85 1015.5
20260506093045 60 0 0.0 0.0 0.00 0.00 0.00 85 1015.4
20260506092520 60 0 0.0 0.0 0.00 0.00 0.00 85 1015.5
20260506092020 61 0 0.0 0.0 0.00 0.00 0.00 85 1015.4
20260506091536 61 0 0.0 0.0 0.00 0.00 0.00 85 1015.4
20260506091019 61 0 0.0 0.9 0.00 0.00 0.00 85 1015.4
20260506090519 61 0 0.0 0.9 0.00 0.00 0.00 85 1015.3
20260506090035 61 0 0.0 0.9 0.00 0.00 0.00 85 1015.3
20260506085521 61 0 0.0 0.9 0.00 0.00 0.00 84 1015.4
20260506085021 61 0 0.0 0.9 0.00 0.00 0.00 83 1015.4
20260506084536 61 0 0.0 0.0 0.00 0.00 0.00 83 1015.5
20260506084020 61 0 0.0 0.0 0.00 0.00 0.00 83 1015.7
20260506083523 61 0 0.0 0.0 0.00 0.00 0.00 82 1015.6
20260506083038 61 0 0.0 0.0 0.00 0.00 0.00 82 1015.6
20260506082518 61 0 0.0 0.0 0.00 0.00 0.00 82 1015.7
20260506082020 61 0 0.0 0.0 0.00 0.00 0.00 82 1015.8
20260506081536 61 0 0.0 0.0 0.00 0.00 0.00 81 1015.8
20260506081019 62 0 0.0 0.0 0.00 0.00 0.00 81 1015.8
20260506080519 62 0 0.0 0.0 0.00 0.00 0.00 81 1015.9
20260506073520 62 0 0.0 0.0 0.00 0.00 0.00 80 1015.8
20260506073036 62 0 0.0 0.0 0.00 0.00 0.00 80 1015.8
20260506072520 62 0 0.0 0.0 0.00 0.00 0.00 80 1015.7
20260506072021 62 0 0.0 0.0 0.00 0.00 0.00 80 1015.8
20260506071542 62 0 0.0 0.0 0.00 0.00 0.00 80 1015.8
20260506071019 63 0 0.0 0.0 0.00 0.00 0.00 79 1015.7
20260506070519 63 0 0.0 0.0 0.00 0.00 0.00 79 1015.6